F1IRU-13 Weather Reports


time (UTC)temp
C
wind
direction
speed
KPH
gust
KPH
rain 1hr
cm
rain 24hr
cm
rain mn
cm
humidity
%
barometer
mb
20260510043237 14 137 0.0 0.0 0.00 0.03 0.03 89 1008.3
20260510042732 14 137 0.0 0.0 0.00 0.03 0.03 89 1008.3
20260510042222 14 137 0.0 0.0 0.00 0.03 0.03 89 1008.4
20260510041947 14 137 0.0 0.0 0.00 0.03 0.03 89 1008.3
20260510041213 14 137 0.0 0.0 0.00 0.03 0.03 89 1008.3
20260510040709 14 137 0.0 0.0 0.00 0.03 0.03 88 1008.4
20260510040419 14 137 0.0 1.6 0.00 0.03 0.03 88 1008.4
20260510035910 14 137 0.0 1.6 0.00 0.03 0.03 88 1008.5
20260510035133 14 137 0.0 0.0 0.00 0.03 0.03 88 1008.5
20260510034624 14 137 0.0 0.0 0.00 0.03 0.03 88 1008.6
20260510034117 15 137 0.0 0.0 0.00 0.03 0.03 89 1008.7
20260510033838 15 137 0.0 0.0 0.00 0.03 0.03 89 1008.7
20260510033330 14 137 0.0 0.0 0.03 0.03 0.03 89 1008.6
20260510032552 15 137 0.0 0.0 0.03 0.03 0.03 89 1008.6
20260510032043 14 137 0.0 0.0 0.03 0.03 0.03 89 1008.5
20260510031524 14 137 0.0 0.0 0.03 0.03 0.03 89 1008.6
20260510031016 14 137 0.0 0.0 0.03 0.03 0.03 89 1008.6
20260510030514 14 137 0.0 6.4 0.03 0.03 0.03 89 1008.6
20260510025954 14 137 0.0 6.4 0.03 0.03 0.03 89 1008.6
20260510025446 15 137 0.0 3.2 0.03 0.03 0.03 89 1008.6
20260510024942 15 137 0.0 3.2 0.03 0.03 0.03 89 1008.7
20260510024434 15 137 0.0 4.8 0.03 0.03 0.03 89 1008.7
20260510023920 15 137 0.0 6.4 0.03 0.03 0.03 89 1008.8
20260510023417 15 138 0.0 4.8 0.03 0.03 0.03 89 1008.8
20260510023148 15 140 0.0 4.8 0.00 0.00 0.00 88 1008.8
20260510022414 15 140 0.0 0.0 0.00 0.00 0.00 88 1008.8
20260510021912 15 140 0.0 1.6 0.00 0.00 0.00 88 1008.8
20260510021616 15 140 0.0 1.6 0.00 0.00 0.00 87 1008.9
20260510020838 15 140 0.0 1.6 0.00 0.00 0.00 87 1009.0
20260510020324 15 140 0.0 1.6 0.00 0.00 0.00 87 1009.0
20260510015822 15 140 0.0 3.2 0.00 0.00 0.00 87 1009.1
20260510015546 15 140 0.0 3.2 0.00 0.00 0.00 86 1008.9
20260510014813 15 140 0.0 3.2 0.00 0.00 0.00 86 1009.0
20260510014321 15 140 0.0 0.0 0.00 0.00 0.00 85 1008.9
20260510014314 15 140 0.0 0.0 0.00 0.00 0.00 85 1009.0
20260510013307 15 140 0.0 0.0 0.00 0.00 0.00 84 1008.7
20260510012753 15 140 0.0 0.0 0.00 0.00 0.00 84 1008.9
20260510012245 15 140 0.0 1.6 0.00 0.00 0.00 84 1008.8
20260510011950 15 140 0.0 1.6 0.00 0.00 0.00 84 1009.0
20260510011218 15 140 0.0 0.0 0.00 0.00 0.00 83 1008.8
20260510010710 15 140 0.0 0.0 0.00 0.00 0.00 83 1009.0
20260510010426 15 140 0.0 1.6 0.00 0.00 0.00 83 1009.1
20260510005925 15 140 0.0 1.6 0.00 0.00 0.00 83 1009.1
20260510005135 16 148 0.0 0.0 0.00 0.00 0.00 82 1009.1
20260510004620 16 152 0.0 0.0 0.00 0.00 0.00 82 1009.1
20260510004117 16 202 0.0 0.0 0.00 0.00 0.00 82 1009.1
20260510003610 16 202 0.0 0.0 0.00 0.00 0.00 81 1009.3
20260510003105 16 206 0.0 0.0 0.00 0.00 0.00 81 1009.4
20260510002607 16 210 0.0 0.0 0.00 0.00 0.00 82 1009.4
20260510002317 16 210 0.0 0.0 0.00 0.00 0.00 81 1009.3
20260510001537 16 210 0.0 6.4 0.00 0.00 0.00 81 1009.3
20260510001035 16 210 0.0 6.4 0.00 0.00 0.00 81 1009.2
20260510000527 16 213 0.0 1.6 0.00 0.00 0.00 81 1009.4
20260510000016 16 213 0.0 8.0 0.00 0.00 0.00 81 1009.6
20260509235748 16 213 0.0 8.0 0.00 0.00 0.00 81 1009.5
20260509235027 16 227 0.0 0.0 0.00 0.00 0.00 81 1009.7
20260509234514 16 229 0.0 4.8 0.00 0.00 0.00 81 1009.8
20260509233959 16 253 0.0 4.8 0.00 0.00 0.00 80 1009.9
20260509233459 16 233 0.0 6.4 0.00 0.00 0.00 81 1009.9
20260509232940 16 223 1.6 9.7 0.00 0.00 0.00 81 1009.8
20260509232441 16 232 1.6 11.3 0.00 0.00 0.00 80 1009.9
20260509231938 16 265 1.6 11.3 0.00 0.00 0.00 80 1009.9
20260509231437 16 234 3.2 20.9 0.00 0.00 0.00 80 1010.1
20260509230931 16 238 3.2 20.9 0.00 0.00 0.00 79 1010.2
20260509230430 17 242 1.6 11.3 0.00 0.00 0.00 79 1010.4
20260509225929 17 221 1.6 9.7 0.00 0.00 0.00 79 1010.5
20260509225432 17 225 1.6 9.7 0.00 0.00 0.00 80 1010.5
20260509224927 17 234 0.0 8.0 0.00 0.00 0.00 79 1010.7
20260509224921 17 236 0.0 8.0 0.00 0.00 0.00 79 1010.6
20260509224148 17 239 1.6 11.3 0.00 0.00 0.00 79 1010.6
20260509223404 17 242 1.6 11.3 0.00 0.00 0.00 78 1010.6
20260509222849 17 220 1.6 14.5 0.00 0.00 0.00 78 1010.4
20260509222347 17 263 1.6 14.5 0.00 0.00 0.00 77 1010.1
20260509222216 17 230 1.6 11.3 0.00 0.00 0.00 76 1010.1
20260509222109 17 217 1.6 11.3 0.00 0.00 0.00 76 1010.3
20260509220824 17 229 0.0 8.0 0.00 0.00 0.00 77 1010.3
20260509220319 17 226 1.6 6.4 0.00 0.00 0.00 78 1010.4
20260509215819 17 226 3.2 17.7 0.00 0.00 0.00 78 1010.3
20260509215314 17 218 1.6 17.7 0.00 0.00 0.00 79 1010.4
20260509214815 17 121 0.0 0.0 0.00 0.00 0.00 78 1009.9
20260509214313 17 121 0.0 0.0 0.00 0.00 0.00 78 1009.9
20260509213748 17 121 0.0 0.0 0.00 0.03 0.00 78 1009.8
20260509213500 17 121 0.0 0.0 0.00 0.03 0.00 78 1009.7
20260509212720 17 121 0.0 0.0 0.00 0.03 0.00 78 1009.8
20260509212218 17 121 0.0 0.0 0.00 0.03 0.00 78 1009.6
20260509211718 17 121 0.0 0.0 0.00 0.03 0.00 78 1009.8
20260509211217 17 121 0.0 0.0 0.00 0.03 0.00 78 1009.7
20260509210658 17 121 0.0 0.0 0.00 0.03 0.00 78 1009.8
20260509210153 17 121 0.0 0.0 0.00 0.03 0.00 77 1009.8
20260509205643 17 121 0.0 0.0 0.00 0.03 0.00 77 1009.7
20260509205124 17 121 0.0 0.0 0.00 0.03 0.00 76 1009.7
20260509204616 17 121 0.0 0.0 0.00 0.03 0.00 76 1009.7
20260509204116 17 121 0.0 0.0 0.00 0.03 0.00 76 1009.5
20260509203601 17 121 0.0 1.6 0.00 0.03 0.00 76 1009.6
20260509203051 17 121 0.0 3.2 0.00 0.03 0.00 76 1009.6
20260509202546 17 121 0.0 3.2 0.00 0.03 0.00 76 1009.6
20260509202036 17 121 0.0 0.0 0.00 0.03 0.00 76 1009.6
20260509202024 17 121 0.0 0.0 0.00 0.03 0.00 75 1009.6
20260509201020 17 121 0.0 0.0 0.00 0.03 0.00 75 1009.6
20260509200516 17 121 0.0 0.0 0.00 0.03 0.00 75 1009.6
20260509200015 18 121 0.0 0.0 0.00 0.03 0.00 75 1009.5
20260509195513 18 121 0.0 0.0 0.00 0.03 0.00 75 1009.5
20260509195242 18 121 0.0 0.0 0.00 0.03 0.00 75 1009.4
20260509194505 18 121 0.0 0.0 0.00 0.03 0.00 73 1009.3
20260509194202 18 121 0.0 0.0 0.00 0.03 0.00 73 1009.3
20260509193424 18 121 0.0 0.0 0.00 0.03 0.00 72 1009.3
20260509193146 19 121 0.0 0.0 0.00 0.03 0.00 71 1009.4
20260509192402 19 121 0.0 0.0 0.00 0.03 0.00 70 1009.4
20260509191900 20 121 0.0 0.0 0.00 0.03 0.00 70 1009.3
20260509191352 20 121 0.0 0.0 0.00 0.03 0.00 71 1009.1
20260509190844 20 121 0.0 0.0 0.00 0.03 0.00 71 1009.3
20260509190337 20 121 0.0 0.0 0.00 0.03 0.00 70 1009.2
20260509185828 20 121 0.0 0.0 0.00 0.03 0.00 71 1009.2
20260509185320 21 121 0.0 0.0 0.00 0.03 0.00 71 1009.2
20260509184818 21 121 0.0 0.0 0.00 0.03 0.00 70 1009.2
20260509184317 21 121 0.0 1.6 0.00 0.03 0.00 69 1009.2
20260509183814 21 121 0.0 1.6 0.00 0.03 0.00 68 1009.0
20260509183312 21 121 0.0 0.0 0.00 0.03 0.00 68 1009.1
20260509183005 21 121 0.0 0.0 0.00 0.03 0.00 68 1009.2
20260509182231 22 121 0.0 0.0 0.00 0.03 0.00 69 1009.3
20260509181723 22 121 0.0 0.0 0.00 0.03 0.00 67 1009.3
20260509181448 22 121 0.0 1.6 0.00 0.03 0.00 64 1009.4
20260509180708 22 121 0.0 1.6 0.00 0.03 0.00 63 1009.4
20260509180205 22 121 0.0 1.6 0.00 0.03 0.00 61 1009.3
20260509175934 23 121 0.0 1.6 0.00 0.03 0.00 62 1009.4
20260509175143 23 121 0.0 0.0 0.00 0.03 0.00 62 1009.4
20260509174616 23 121 0.0 0.0 0.00 0.03 0.00 61 1009.3
20260509174115 23 121 0.0 1.6 0.00 0.03 0.00 60 1009.3
20260509173614 23 121 0.0 4.8 0.00 0.03 0.00 58 1009.2
20260509173112 24 121 1.6 4.8 0.00 0.03 0.00 57 1009.2
20260509172536 24 121 1.6 8.0 0.00 0.03 0.00 55 1009.2
20260509172035 24 121 3.2 8.0 0.00 0.03 0.00 54 1009.3
20260509171533 24 121 3.2 9.7 0.00 0.03 0.00 54 1009.5
20260509171305 25 121 3.2 9.7 0.00 0.03 0.00 54 1009.6
20260509170803 25 119 3.2 8.0 0.00 0.03 0.00 53 1009.5
20260509170023 25 124 1.6 8.0 0.00 0.03 0.00 53 1009.5
20260509165517 25 124 1.6 9.7 0.00 0.03 0.00 52 1009.5
20260509165012 25 124 1.6 9.7 0.00 0.03 0.00 51 1009.5
20260509164456 25 125 1.6 11.3 0.00 0.03 0.00 51 1009.4
20260509163956 25 126 1.6 9.7 0.00 0.03 0.00 52 1009.4
20260509163728 25 125 1.6 9.7 0.00 0.03 0.00 52 1009.5
20260509162937 25 124 0.0 9.7 0.00 0.03 0.00 54 1009.4
20260509162428 25 124 0.0 9.7 0.00 0.03 0.00 52 1009.5
20260509162150 25 124 0.0 6.4 0.00 0.03 0.00 54 1009.6
20260509161416 25 124 1.6 6.4 0.00 0.03 0.00 54 1009.6
20260509160904 25 124 1.6 6.4 0.00 0.03 0.00 54 1009.7
20260509160356 25 124 1.6 9.7 0.00 0.03 0.00 56 1009.6
20260509160115 25 123 1.6 11.3 0.00 0.03 0.00 52 1009.8
20260509155949 25 124 3.2 11.3 0.00 0.03 0.00 55 1009.7
20260509154836 25 137 1.6 8.0 0.00 0.03 0.00 52 1009.7
20260509154831 25 150 1.6 11.3 0.00 0.03 0.00 50 1009.8
20260509153821 25 138 1.6 9.7 0.00 0.03 0.00 49 1010.0
20260509153319 25 178 1.6 9.7 0.00 0.03 0.00 49 1009.8
20260509152818 25 131 1.6 14.5 0.00 0.03 0.00 51 1009.9
20260509152316 26 121 3.2 14.5 0.00 0.03 0.00 50 1009.9
20260509152043 26 121 4.8 17.7 0.00 0.03 0.00 51 1010.0
20260509151541 26 190 3.2 17.7 0.00 0.03 0.00 48 1009.9
20260509150808 26 202 1.6 11.3 0.00 0.03 0.00 50 1010.0
20260509150306 26 118 1.6 14.5 0.00 0.03 0.00 48 1010.0
20260509150015 26 126 1.6 14.5 0.00 0.03 0.00 50 1010.1
20260509145244 26 171 1.6 11.3 0.00 0.03 0.00 51 1010.1
20260509145016 26 127 0.0 11.3 0.00 0.03 0.00 51 1010.2
20260509144516 25 111 1.6 6.4 0.00 0.03 0.00 53 1010.3
20260509143720 25 144 3.2 16.1 0.00 0.03 0.00 53 1010.3
20260509143218 25 199 6.4 16.1 0.00 0.03 0.00 52 1010.3
20260509142721 25 123 3.2 14.5 0.00 0.03 0.00 55 1010.4
20260509142210 25 126 3.2 17.7 0.00 0.03 0.00 52 1010.5
20260509141710 25 170 4.8 17.7 0.00 0.03 0.00 52 1010.4
20260509141209 25 125 3.2 14.5 0.00 0.03 0.00 51 1010.4
20260509140709 25 121 1.6 9.7 0.00 0.03 0.00 50 1010.5
20260509140209 25 153 1.6 14.5 0.00 0.03 0.00 52 1010.5
20260509135712 25 217 1.6 14.5 0.00 0.03 0.00 50 1010.6
20260509135149 25 179 0.0 11.3 0.00 0.03 0.00 53 1010.6
20260509134913 25 161 0.0 6.4 0.00 0.03 0.00 52 1010.6
20260509134118 25 159 1.6 11.3 0.00 0.03 0.00 53 1010.6
20260509133610 25 184 1.6 11.3 0.00 0.03 0.00 53 1010.8
20260509133102 25 126 0.0 6.4 0.00 0.03 0.00 55 1010.8
20260509132601 25 126 1.6 11.3 0.00 0.03 0.00 49 1010.8
20260509132029 25 168 0.0 11.3 0.00 0.03 0.00 52 1010.8
20260509131528 25 193 1.6 16.1 0.00 0.03 0.00 51 1010.8
20260509131016 25 109 1.6 16.1 0.00 0.03 0.00 53 1010.9
20260509130512 25 131 1.6 11.3 0.00 0.03 0.00 53 1010.9
20260509130008 24 123 1.6 14.5 0.00 0.03 0.00 51 1010.8
20260509125740 24 205 4.8 16.1 0.00 0.05 0.00 50 1010.8
20260509124958 24 187 4.8 16.1 0.00 0.05 0.00 54 1010.9
20260509124453 23 138 4.8 14.5 0.00 0.05 0.00 55 1011.0
20260509123952 23 115 4.8 16.1 0.00 0.05 0.00 57 1011.0
20260509123722 23 125 3.2 16.1 0.00 0.05 0.00 57 1011.1
20260509122946 24 131 1.6 16.1 0.00 0.05 0.00 54 1011.0
20260509122446 24 192 1.6 16.1 0.00 0.05 0.00 55 1010.9
20260509121936 24 171 1.6 9.7 0.00 0.05 0.00 55 1010.8
20260509121430 24 200 3.2 11.3 0.00 0.05 0.00 52 1010.9
20260509120928 24 194 1.6 11.3 0.00 0.05 0.00 54 1010.9
20260509120428 24 140 1.6 11.3 0.00 0.05 0.00 54 1010.9
20260509115917 24 218 3.2 16.1 0.00 0.05 0.00 54 1010.9
20260509115418 24 186 3.2 16.1 0.00 0.05 0.00 56 1011.2
20260509114918 24 137 3.2 11.3 0.00 0.05 0.00 57 1011.1
20260509114416 23 132 1.6 8.0 0.00 0.05 0.00 59 1011.2
20260509114148 23 127 3.2 14.5 0.00 0.05 0.00 58 1011.2
20260509113406 23 140 1.6 14.5 0.00 0.05 0.00 56 1011.4
20260509112856 23 124 0.0 4.8 0.00 0.05 0.00 59 1011.5
20260509112352 23 131 0.0 4.8 0.00 0.05 0.00 57 1011.6
20260509111830 23 131 1.6 8.0 0.00 0.05 0.00 60 1011.5
20260509111322 22 131 1.6 9.7 0.00 0.05 0.00 63 1011.6
20260509110814 22 131 1.6 9.7 0.00 0.05 0.00 63 1011.8
20260509110314 22 130 1.6 8.0 0.00 0.05 0.00 62 1011.8
20260509105800 22 67 0.0 4.8 0.00 0.05 0.00 62 1011.9
20260509105244 22 67 0.0 4.8 0.00 0.05 0.00 63 1011.9
20260509104743 22 175 1.6 9.7 0.00 0.05 0.00 63 1011.9
20260509104236 22 184 1.6 9.7 0.00 0.05 0.00 64 1011.9
20260509103725 22 83 3.2 6.4 0.00 0.05 0.00 66 1011.9
20260509103226 22 46 3.2 6.4 0.00 0.05 0.00 63 1011.9
20260509102724 22 67 3.2 8.0 0.00 0.05 0.00 65 1012.0
20260509102222 21 117 3.2 8.0 0.00 0.05 0.00 66 1012.0
20260509101953 21 109 3.2 8.0 0.00 0.05 0.00 64 1011.9
20260509101436 21 109 1.6 8.0 0.00 0.05 0.00 65 1012.0
20260509100708 21 71 1.6 6.4 0.00 0.05 0.00 65 1012.1
20260509100144 21 71 0.0 6.4 0.00 0.05 0.00 64 1012.0
20260509095915 21 67 0.0 3.2 0.00 0.05 0.00 66 1012.0
20260509095130 21 67 0.0 4.8 0.00 0.05 0.00 65 1012.1
20260509094845 20 67 1.6 4.8 0.00 0.05 0.00 63 1012.2
20260509094345 20 67 1.6 4.8 0.00 0.05 0.00 66 1012.1
20260509093538 20 66 1.6 4.8 0.00 0.05 0.00 66 1012.0
20260509093015 20 340 1.6 4.8 0.00 0.05 0.00 65 1012.0
20260509092509 20 269 1.6 9.7 0.00 0.05 0.00 65 1012.0
20260509092228 20 269 1.6 9.7 0.00 0.05 0.00 66 1012.1
20260509091422 20 266 1.6 8.0 0.00 0.05 0.00 67 1011.9
20260509090846 20 255 1.6 6.4 0.00 0.05 0.00 66 1011.9
20260509090324 19 252 1.6 8.0 0.00 0.05 0.00 67 1012.0
20260509085816 19 218 1.6 9.7 0.00 0.05 0.00 68 1012.0
20260509085310 19 219 3.2 9.7 0.00 0.05 0.00 68 1012.2
20260509084812 19 312 3.2 11.3 0.00 0.05 0.00 67 1012.4
20260509084310 19 263 1.6 11.3 0.00 0.05 0.00 68 1012.3
20260509083808 19 255 1.6 8.0 0.00 0.05 0.00 67 1012.3
20260509083301 18 240 1.6 9.7 0.00 0.05 0.00 68 1012.3
20260509082754 18 237 1.6 9.7 0.00 0.05 0.00 70 1012.4
20260509082246 18 259 1.6 9.7 0.00 0.05 0.00 68 1012.3
20260509081743 18 206 1.6 9.7 0.00 0.05 0.00 69 1012.3
20260509081242 18 276 1.6 9.7 0.00 0.05 0.00 69 1012.4
20260509080736 18 249 1.6 9.7 0.00 0.05 0.00 70 1012.5
20260509080228 17 249 1.6 9.7 0.00 0.05 0.00 69 1012.4
20260509075722 17 210 1.6 11.3 0.00 0.05 0.00 71 1012.5
20260509075220 17 252 4.8 16.1 0.00 0.05 0.00 70 1012.4
20260509074946 17 236 4.8 16.1 0.00 0.05 0.00 70 1012.5
20260509074216 17 249 3.2 16.1 0.00 0.05 0.00 70 1012.4
20260509073947 16 227 3.2 11.3 0.00 0.05 0.00 71 1012.3
20260509073446 16 234 1.6 11.3 0.00 0.05 0.00 73 1012.3
20260509072710 16 207 1.6 11.3 0.00 0.05 0.00 72 1012.3
20260509072200 16 205 3.2 11.3 0.00 0.05 0.00 73 1012.3
20260509071928 16 223 4.8 11.3 0.00 0.05 0.00 72 1012.3
20260509071158 16 207 3.2 11.3 0.00 0.05 0.00 74 1012.4
20260509070659 16 209 3.2 14.5 0.00 0.05 0.00 74 1012.3
20260509070156 16 206 1.6 14.5 0.00 0.05 0.00 75 1012.3
20260509065653 16 220 1.6 9.7 0.00 0.05 0.00 75 1012.4
20260509065141 16 255 0.0 6.4 0.00 0.05 0.00 76 1012.3
20260509064638 16 229 0.0 4.8 0.00 0.05 0.00 76 1012.4
20260509064141 15 213 0.0 1.6 0.00 0.05 0.00 76 1012.3
20260509063956 15 168 0.0 1.6 0.00 0.05 0.00 77 1012.2
20260509063848 15 200 0.0 1.6 0.00 0.05 0.00 77 1012.3
20260509062557 15 168 0.0 1.6 0.00 0.05 0.00 78 1012.2
20260509062034 15 168 0.0 3.2 0.00 0.05 0.00 78 1012.2
20260509061520 15 168 0.0 3.2 0.00 0.05 0.00 78 1012.1
20260509061018 15 168 0.0 1.6 0.00 0.05 0.00 79 1012.1
20260509060518 15 165 0.0 4.8 0.00 0.05 0.00 79 1012.2
20260509060000 14 192 0.0 4.8 0.00 0.05 0.00 79 1012.0
20260509055500 14 198 0.0 0.0 0.00 0.05 0.00 79 1012.1
20260509054946 14 157 0.0 1.6 0.00 0.05 0.00 80 1012.0
20260509054436 14 156 0.0 1.6 0.00 0.05 0.00 81 1011.9
20260509054201 13 155 0.0 1.6 0.00 0.05 0.00 81 1011.8
20260509053423 13 167 0.0 6.4 0.00 0.05 0.00 82 1011.9
20260509052915 13 167 0.0 6.4 0.00 0.05 0.00 82 1011.8
20260509052414 13 180 0.0 6.4 0.00 0.05 0.00 83 1011.9
20260509051914 13 142 0.0 6.4 0.00 0.05 0.00 83 1012.0
20260509051630 13 190 0.0 3.2 0.00 0.05 0.00 83 1011.8
20260509050853 13 146 0.0 1.6 0.00 0.05 0.00 84 1011.9
20260509050350 13 182 0.0 3.2 0.00 0.05 0.00 84 1011.9
20260509045841 13 169 0.0 6.4 0.00 0.05 0.00 85 1011.8
20260509045332 13 192 0.0 6.4 0.00 0.05 0.00 85 1011.8
20260509044824 13 121 0.0 4.8 0.00 0.05 0.00 85 1011.7
20260509044316 13 155 0.0 4.8 0.00 0.05 0.00 85 1011.6